Time,TemperatureF,DewpointF,PressureIn,WindDirection,WindDirectionDegrees,WindSpeedMPH,WindSpeedGustMPH,Humidity,HourlyPrecipIn,Conditions,Clouds,dailyrainin,SolarRadiationWatts/m^2,SoftwareType,DateUTC
2013-04-02 00:03:00,47.0,47.0,-100.00,SE,139,1.0,6.0,100,0.01,,,0.10,0.000000,,2013-04-02 10:03:00,
2013-04-02 00:13:00,47.0,47.0,-100.00,SE,139,1.0,6.0,100,0.01,,,0.10,0.000000,,2013-04-02 10:13:00,
2013-04-02 00:23:00,47.0,47.0,-100.00,SE,139,1.0,6.0,100,0.01,,,0.10,0.000000,,2013-04-02 10:23:00,
2013-04-02 00:32:00,47.0,47.0,-100.00,SE,139,1.0,6.0,100,0.01,,,0.10,0.000000,,2013-04-02 10:32:00,
2013-04-02 01:02:00,48.0,48.0,-100.00,SSW,193,1.0,5.0,100,0.00,,,0.10,0.000000,,2013-04-02 11:02:00,
2013-04-02 01:12:00,48.0,48.0,-100.00,SSW,193,1.0,5.0,100,0.00,,,0.10,0.000000,,2013-04-02 11:12:00,
2013-04-02 01:22:00,48.0,48.0,-100.00,SSW,193,1.0,5.0,100,0.00,,,0.10,0.000000,,2013-04-02 11:22:00,
2013-04-02 01:32:00,48.0,48.0,-100.00,SSW,193,1.0,5.0,100,0.00,,,0.10,0.000000,,2013-04-02 11:32:00,
2013-04-02 02:02:00,48.0,48.0,-100.00,NNW,334,0.0,5.0,99,0.01,,,0.11,0.000000,,2013-04-02 12:02:00,
2013-04-02 02:11:00,48.0,48.0,-100.00,NNW,334,0.0,5.0,99,0.01,,,0.11,0.000000,,2013-04-02 12:11:00,
2013-04-02 02:22:00,48.0,48.0,-100.00,NNW,334,0.0,5.0,99,0.01,,,0.11,0.000000,,2013-04-02 12:22:00,
2013-04-02 02:32:00,48.0,48.0,-100.00,NNW,334,0.0,5.0,99,0.01,,,0.11,0.000000,,2013-04-02 12:32:00,
2013-04-02 03:01:00,46.0,46.0,-100.00,NE,42,0.0,3.0,99,0.00,,,0.11,0.000000,,2013-04-02 13:01:00,
2013-04-02 03:12:00,46.0,46.0,-100.00,NE,42,0.0,3.0,99,0.00,,,0.11,0.000000,,2013-04-02 13:12:00,
2013-04-02 03:22:00,46.0,46.0,-100.00,NE,42,0.0,3.0,99,0.00,,,0.11,0.000000,,2013-04-02 13:22:00,
2013-04-02 03:32:00,46.0,46.0,-100.00,NE,42,0.0,3.0,99,0.00,,,0.11,0.000000,,2013-04-02 13:32:00,
2013-04-02 03:52:00,46.0,46.0,-100.00,ENE,75,0.0,3.0,99,0.00,,,0.10,0.000000,,2013-04-02 13:52:00,
2013-04-02 04:02:00,46.0,46.0,-100.00,ENE,75,0.0,3.0,99,0.00,,,0.10,0.000000,,2013-04-02 14:02:00,
2013-04-02 04:12:00,46.0,46.0,-100.00,ENE,75,0.0,3.0,99,0.00,,,0.10,0.000000,,2013-04-02 14:12:00,
2013-04-02 04:22:00,46.0,46.0,-100.00,ENE,75,0.0,3.0,99,0.00,,,0.10,0.000000,,2013-04-02 14:22:00,
2013-04-02 04:32:00,46.0,46.0,-100.00,ENE,75,0.0,3.0,99,0.00,,,0.10,0.000000,,2013-04-02 14:32:00,
2013-04-02 05:02:00,45.0,45.0,-100.00,NW,317,0.0,2.0,99,0.00,,,0.10,0.000000,,2013-04-02 15:02:00,
2013-04-02 05:11:00,45.0,45.0,-100.00,NW,317,0.0,2.0,99,0.00,,,0.10,0.000000,,2013-04-02 15:11:00,
2013-04-02 05:22:00,45.0,45.0,-100.00,NW,317,0.0,2.0,99,0.00,,,0.10,0.000000,,2013-04-02 15:22:00,
2013-04-02 05:33:00,45.0,45.0,-100.00,NW,317,0.0,2.0,99,0.00,,,0.10,0.000000,,2013-04-02 15:33:00,
2013-04-02 06:03:00,41.0,40.0,-100.00,SSW,212,1.0,2.0,98,0.00,,,0.10,0.000000,,2013-04-02 16:03:00,
2013-04-02 06:13:00,41.0,40.0,-100.00,SSW,212,1.0,2.0,98,0.00,,,0.10,0.000000,,2013-04-02 16:13:00,
2013-04-02 06:24:00,41.0,40.0,-100.00,SSW,212,1.0,2.0,98,0.00,,,0.10,0.000000,,2013-04-02 16:24:00,
2013-04-02 06:33:00,41.0,40.0,-100.00,SSW,212,1.0,2.0,98,0.00,,,0.10,0.000000,,2013-04-02 16:33:00,
2013-04-02 06:53:00,43.0,43.0,-100.00,NW,317,1.0,4.0,99,0.00,,,-99.99,2.000000,,2013-04-02 16:53:00,
2013-04-02 07:04:00,43.0,43.0,-100.00,NW,317,1.0,4.0,99,0.00,,,-99.99,2.000000,,2013-04-02 17:04:00,
2013-04-02 07:12:00,43.0,43.0,-100.00,NW,317,1.0,4.0,99,0.00,,,-99.99,2.000000,,2013-04-02 17:12:00,
2013-04-02 07:23:00,43.0,43.0,-100.00,NW,317,1.0,4.0,99,0.00,,,-99.99,2.000000,,2013-04-02 17:23:00,
2013-04-02 07:33:00,43.0,43.0,-100.00,NW,317,1.0,4.0,99,0.00,,,-99.99,2.000000,,2013-04-02 17:33:00,
2013-04-02 07:55:00,48.0,47.0,-100.00,North,0,1.0,5.0,98,0.00,,,0.10,76.000000,,2013-04-02 17:55:00,
2013-04-02 08:03:00,48.0,47.0,-100.00,North,0,1.0,5.0,98,0.00,,,0.10,76.000000,,2013-04-02 18:03:00,
2013-04-02 08:12:00,48.0,47.0,-100.00,North,0,1.0,5.0,98,0.00,,,0.10,76.000000,,2013-04-02 18:12:00,
2013-04-02 08:22:00,48.0,47.0,-100.00,North,0,1.0,5.0,98,0.00,,,0.10,76.000000,,2013-04-02 18:22:00,
2013-04-02 08:33:00,48.0,47.0,-100.00,North,0,1.0,5.0,98,0.00,,,0.10,76.000000,,2013-04-02 18:33:00,
2013-04-02 09:03:00,54.0,49.0,-100.00,ESE,108,3.0,3.0,84,0.01,,,0.11,401.000000,,2013-04-02 19:03:00,
2013-04-02 09:12:00,54.0,49.0,-100.00,ESE,108,3.0,3.0,84,0.01,,,0.11,401.000000,,2013-04-02 19:12:00,
2013-04-02 09:22:00,54.0,49.0,-100.00,ESE,108,3.0,3.0,84,0.01,,,0.11,401.000000,,2013-04-02 19:22:00,
2013-04-02 09:32:00,54.0,49.0,-100.00,ESE,108,3.0,3.0,84,0.01,,,0.11,401.000000,,2013-04-02 19:32:00,
2013-04-02 10:03:00,55.0,52.0,-100.00,SSE,161,3.0,6.0,88,0.00,,,0.11,380.000000,,2013-04-02 20:03:00,
2013-04-02 10:12:00,55.0,52.0,-100.00,SSE,161,3.0,6.0,88,0.00,,,0.11,380.000000,,2013-04-02 20:12:00,
2013-04-02 10:22:00,55.0,52.0,-100.00,SSE,161,3.0,6.0,88,0.00,,,0.11,380.000000,,2013-04-02 20:22:00,
2013-04-02 10:32:00,55.0,52.0,-100.00,SSE,161,3.0,6.0,88,0.00,,,0.11,380.000000,,2013-04-02 20:32:00,
2013-04-02 11:03:00,56.0,51.0,-100.00,SE,145,2.0,6.0,82,0.00,,,0.11,281.000000,,2013-04-02 21:03:00,
2013-04-02 11:12:00,56.0,51.0,-100.00,SE,145,2.0,6.0,82,0.00,,,0.11,281.000000,,2013-04-02 21:12:00,
2013-04-02 11:22:00,56.0,51.0,-100.00,SE,145,2.0,6.0,82,0.00,,,0.11,281.000000,,2013-04-02 21:22:00,
2013-04-02 11:32:00,56.0,51.0,-100.00,SE,145,2.0,6.0,82,0.00,,,0.11,281.000000,,2013-04-02 21:32:00,
2013-04-02 12:03:00,56.0,51.0,-100.00,SSE,168,3.0,7.0,83,0.00,,,-99.99,253.000000,,2013-04-02 22:03:00,
2013-04-02 12:13:00,56.0,51.0,-100.00,SSE,168,3.0,7.0,83,0.00,,,-99.99,253.000000,,2013-04-02 22:13:00,
2013-04-02 12:23:00,56.0,51.0,-100.00,SSE,168,3.0,7.0,83,0.00,,,-99.99,253.000000,,2013-04-02 22:23:00,
2013-04-02 12:32:00,56.0,51.0,-100.00,SSE,168,3.0,7.0,83,0.00,,,-99.99,253.000000,,2013-04-02 22:32:00,
2013-04-02 13:02:00,55.0,54.0,-100.00,SSE,161,4.0,8.0,95,0.00,,,0.11,208.000000,,2013-04-02 23:02:00,
2013-04-02 13:12:00,55.0,54.0,-100.00,SSE,161,4.0,8.0,95,0.00,,,0.11,208.000000,,2013-04-02 23:12:00,
2013-04-02 13:23:00,55.0,54.0,-100.00,SSE,161,4.0,8.0,95,0.00,,,0.11,208.000000,,2013-04-02 23:23:00,
2013-04-02 13:32:00,55.0,54.0,-100.00,SSE,161,4.0,8.0,95,0.00,,,0.11,208.000000,,2013-04-02 23:32:00,
2013-04-02 14:03:00,56.0,53.0,-100.00,SSE,159,2.0,8.0,90,0.00,,,0.11,180.000000,,2013-04-03 00:03:00,
2013-04-02 14:12:00,56.0,53.0,-100.00,SSE,159,2.0,8.0,90,0.00,,,0.11,180.000000,,2013-04-03 00:12:00,
2013-04-02 14:23:00,56.0,53.0,-100.00,SSE,159,2.0,8.0,90,0.00,,,0.11,180.000000,,2013-04-03 00:23:00,
2013-04-02 14:32:00,56.0,53.0,-100.00,SSE,159,2.0,8.0,90,0.00,,,0.11,180.000000,,2013-04-03 00:32:00,
2013-04-02 14:55:00,52.0,52.0,-100.00,SSE,150,3.0,6.0,99,0.00,,,0.11,113.000000,,2013-04-03 00:55:00,
2013-04-02 15:03:00,52.0,52.0,-100.00,SSE,150,3.0,6.0,99,0.00,,,0.11,113.000000,,2013-04-03 01:03:00,
2013-04-02 15:12:00,52.0,52.0,-100.00,SSE,150,3.0,6.0,99,0.00,,,0.11,113.000000,,2013-04-03 01:12:00,
2013-04-02 15:22:00,52.0,52.0,-100.00,SSE,150,3.0,6.0,99,0.00,,,0.11,113.000000,,2013-04-03 01:22:00,
2013-04-02 15:32:00,52.0,52.0,-100.00,SSE,150,3.0,6.0,99,0.00,,,0.11,113.000000,,2013-04-03 01:32:00,
2013-04-02 15:53:00,50.0,50.0,-100.00,SE,144,3.0,6.0,100,0.00,,,0.10,45.000000,,2013-04-03 01:53:00,
2013-04-02 16:03:00,50.0,50.0,-100.00,SE,144,3.0,6.0,100,0.00,,,0.10,45.000000,,2013-04-03 02:03:00,
2013-04-02 16:12:00,50.0,50.0,-100.00,SE,144,3.0,6.0,100,0.00,,,0.10,45.000000,,2013-04-03 02:12:00,
2013-04-02 16:23:00,50.0,50.0,-100.00,SE,144,3.0,6.0,100,0.00,,,0.10,45.000000,,2013-04-03 02:23:00,
2013-04-02 16:33:00,50.0,50.0,-100.00,SE,144,3.0,6.0,100,0.00,,,0.10,45.000000,,2013-04-03 02:33:00,
2013-04-02 16:34:00,51.0,51.0,-100.00,SE,136,1.0,8.0,100,0.00,,,0.08,24.000000,,2013-04-03 02:34:00,
2013-04-02 17:04:00,51.0,51.0,-100.00,SE,136,1.0,8.0,100,0.00,,,0.08,24.000000,,2013-04-03 03:04:00,
2013-04-02 17:13:00,51.0,51.0,-100.00,SE,136,1.0,8.0,100,0.00,,,0.08,24.000000,,2013-04-03 03:13:00,
2013-04-02 17:22:00,51.0,51.0,-100.00,SE,136,1.0,8.0,100,0.00,,,0.08,24.000000,,2013-04-03 03:22:00,
2013-04-02 17:54:00,51.0,51.0,-100.00,SE,142,1.0,4.0,100,0.01,,,0.07,16.000000,,2013-04-03 03:54:00,
2013-04-02 18:03:00,51.0,51.0,-100.00,SE,142,1.0,4.0,100,0.01,,,0.07,16.000000,,2013-04-03 04:03:00,
2013-04-02 18:12:00,51.0,51.0,-100.00,SE,142,1.0,4.0,100,0.01,,,0.07,16.000000,,2013-04-03 04:12:00,
2013-04-02 18:23:00,51.0,51.0,-100.00,SE,142,1.0,4.0,100,0.01,,,0.07,16.000000,,2013-04-03 04:23:00,
2013-04-02 18:32:00,51.0,51.0,-100.00,SE,142,1.0,4.0,100,0.01,,,0.07,16.000000,,2013-04-03 04:32:00,
2013-04-02 18:53:00,50.0,50.0,-100.00,NE,35,2.0,3.0,100,0.00,,,0.05,5.000000,,2013-04-03 04:53:00,
2013-04-02 19:02:00,50.0,50.0,-100.00,NE,35,2.0,3.0,100,0.00,,,0.05,5.000000,,2013-04-03 05:02:00,
2013-04-02 19:12:00,50.0,50.0,-100.00,NE,35,2.0,3.0,100,0.00,,,0.05,5.000000,,2013-04-03 05:12:00,
2013-04-02 19:22:00,50.0,50.0,-100.00,NE,35,2.0,3.0,100,0.00,,,0.05,5.000000,,2013-04-03 05:22:00,
2013-04-02 19:32:00,50.0,50.0,-100.00,NE,35,2.0,3.0,100,0.00,,,0.05,5.000000,,2013-04-03 05:32:00,
2013-04-02 19:52:00,50.0,50.0,-100.00,NNE,29,2.0,5.0,99,0.01,,,0.05,0.000000,,2013-04-03 05:52:00,
2013-04-02 20:02:00,50.0,50.0,-100.00,NNE,29,2.0,5.0,99,0.01,,,0.05,0.000000,,2013-04-03 06:02:00,
2013-04-02 20:12:00,50.0,50.0,-100.00,NNE,29,2.0,5.0,99,0.01,,,0.05,0.000000,,2013-04-03 06:12:00,
2013-04-02 20:22:00,50.0,50.0,-100.00,NNE,29,2.0,5.0,99,0.01,,,0.05,0.000000,,2013-04-03 06:22:00,
2013-04-02 20:32:00,50.0,50.0,-100.00,NNE,29,2.0,5.0,99,0.01,,,0.05,0.000000,,2013-04-03 06:32:00,
2013-04-02 20:52:00,50.0,50.0,-100.00,North,9,0.0,5.0,99,0.00,,,0.05,0.000000,,2013-04-03 06:52:00,
2013-04-02 21:02:00,50.0,50.0,-100.00,North,9,0.0,5.0,99,0.00,,,0.05,0.000000,,2013-04-03 07:02:00,
2013-04-02 21:12:00,50.0,50.0,-100.00,North,9,0.0,5.0,99,0.00,,,0.05,0.000000,,2013-04-03 07:12:00,
2013-04-02 21:22:00,50.0,50.0,-100.00,North,9,0.0,5.0,99,0.00,,,0.05,0.000000,,2013-04-03 07:22:00,
2013-04-02 21:32:00,50.0,50.0,-100.00,North,9,0.0,5.0,99,0.00,,,0.05,0.000000,,2013-04-03 07:32:00,
2013-04-02 21:53:00,48.0,48.0,-100.00,NE,46,1.0,4.0,99,0.00,,,0.05,0.000000,,2013-04-03 07:53:00,
2013-04-02 22:02:00,48.0,48.0,-100.00,NE,46,1.0,4.0,99,0.00,,,0.05,0.000000,,2013-04-03 08:02:00,
2013-04-02 22:12:00,48.0,48.0,-100.00,NE,46,1.0,4.0,99,0.00,,,0.05,0.000000,,2013-04-03 08:12:00,
2013-04-02 22:22:00,48.0,48.0,-100.00,NE,46,1.0,4.0,99,0.00,,,0.05,0.000000,,2013-04-03 08:22:00,
2013-04-02 22:32:00,48.0,48.0,-100.00,NE,46,1.0,4.0,99,0.00,,,0.05,0.000000,,2013-04-03 08:32:00,
2013-04-02 22:52:00,49.0,49.0,-100.00,NNE,20,2.0,5.0,99,0.00,,,0.05,0.000000,,2013-04-03 08:52:00,
2013-04-02 23:02:00,49.0,49.0,-100.00,NNE,20,2.0,5.0,99,0.00,,,0.05,0.000000,,2013-04-03 09:02:00,
2013-04-02 23:12:00,49.0,49.0,-100.00,NNE,20,2.0,5.0,99,0.00,,,0.05,0.000000,,2013-04-03 09:12:00,
2013-04-02 23:22:00,49.0,49.0,-100.00,NNE,20,2.0,5.0,99,0.00,,,0.05,0.000000,,2013-04-03 09:22:00,
2013-04-02 23:32:00,49.0,49.0,-100.00,NNE,20,2.0,5.0,99,0.00,,,0.05,0.000000,,2013-04-03 09:32:00,